Find Starlink 30566

NORAD ID: 58054 Int'l Des: 2023-158 Owner: SPXS Country: US Constellation: starlink operational
LEOCIRCULAR

实时位置

正在加载3D地球...

关于 Starlink 30566

正在加载描述...

即将过境

Passes for default location (London). Set your location on the main map for personalized predictions.

高度历史

Loading altitude history...

两行轨道根数

1 58054U 23158D 26133.04131755 .00015799 00000-0 58257-3 0 9993
2 58054 43.0000 23.4634 0001448 255.9882 104.0809 15.27571634143415
Epoch: May 13, 2026 • Age: 11 hours

当前状态

高度 482.7 km
速度 7.63 km/s
星下点 15.52°N, 14.33°W
发射日期 Oct 13, 2023
运行时间 2.5 years
类型 internet

技术详情

分类 Payload
质量 730.00 kg
干质量 700.00 kg
总质量 730.00 kg
长度 0.30 m
直径 4.10 m
跨度 29.00 m
形状 Box + pan
制造商 SPXS
平台类型 Starlink V2M
阶段状态 In Orbit
所有者/国家 SPXS/US

Most Searched